Marysville, OH

10:16 PM EST on December 03, 2016 (GMT -0500)
Marysville

Weather History for KMRT - October, 2012

Change the Weather History Date:

Thursday, October 11, 2012

  Actual Average (KDLZ) Record (KDLZ)
Temperature  
Mean Temperature 44 °F -  
Max Temperature 59 °F 66 °F 85 °F (1954)
Min Temperature 30 °F 39 °F 19 °F (1964)
Degree Days  
Heating Degree Days 20    
Moisture  
Dew Point 28 °F    
Average Humidity 61    
Maximum Humidity 88    
Minimum Humidity 27    
Precipitation  
Precipitation 0.00 in - - ()
Sea Level Pressure  
Sea Level Pressure 30.22 in    
Wind  
Wind Speed 4 mph (WSW)    
Max Wind Speed 14 mph    
Max Gust Speed 21 mph    
Visibility 10 miles    
Events      
Averages and records for this station are not official NWS values.
T = Trace of Precipitation, MM = Missing Value Source: NWS Daily Summary

Daily Weather History Graph

Daily Weather History Graph

Search for Another Location

Airport or City:

Trip Planner

Search our weather history database for the weather conditions in past years. The results will help you decide how hot, cold, wet, or windy it might be!

Date:

Astronomy

Oct. 11, 2012 Rise Set
Actual Time 7:40 AM EDT 6:58 PM EDT
Civil Twilight 7:13 AM EDT 7:26 PM EDT
Nautical Twilight 6:41 AM EDT 7:57 PM EDT
Astronomical Twilight 6:10 AM EDT 8:29 PM EDT
Moon 3:17 AM EDT (10/11) 4:35 PM EDT (10/11)
Length of Visible Light 12h 13m
Length of Day
11h 18m
Waning Crescent, 18% of the Moon is Illuminated
Oct 11
Waning Crescent
Oct 15
New
Oct 21
First Quarter
Oct 29
Full
Nov 6
Last Quarter

Hourly Weather History & Observations

Time (EDT) Temp. Windchill Dew Point Humidity Pressure Visibility Wind Dir Wind Speed Gust Speed Precip Events Conditions
12:15 AM 33.8 °F - 29.1 °F 83% 30.22 in 10.0 mi Calm Calm - N/A   Clear
12:34 AM 33.3 °F 30.2 °F 28.8 °F 84% 30.22 in 10.0 mi SW 3.5 mph - N/A   Clear
12:54 AM 31.8 °F 27.3 °F 28.0 °F 86% 30.23 in 10.0 mi SW 4.6 mph - N/A   Clear
1:15 AM 31.5 °F 26.8 °F 28.2 °F 88% 30.23 in 10.0 mi WSW 4.6 mph - N/A   Clear
1:34 AM 32.2 °F - 28.9 °F 88% 30.22 in 10.0 mi Calm Calm - N/A   Clear
1:54 AM 32.2 °F - 28.4 °F 86% 30.22 in 10.0 mi Calm Calm - N/A   Clear
2:15 AM 31.8 °F - 27.5 °F 84% 30.22 in 10.0 mi Calm Calm - N/A   Clear
2:34 AM 32.2 °F - 27.9 °F 84% 30.22 in 10.0 mi Calm Calm - N/A   Clear
2:54 AM 32.2 °F - 28.2 °F 85% 30.22 in 10.0 mi Calm Calm - N/A   Clear
3:15 AM 30.9 °F 27.5 °F 27.5 °F 87% 30.22 in 10.0 mi SW 3.5 mph - N/A   Clear
3:34 AM 30.6 °F 27.1 °F 27.1 °F 87% 30.22 in 10.0 mi WSW 3.5 mph - N/A   Clear
3:54 AM 30.0 °F - 26.8 °F 88% 30.23 in 10.0 mi Calm Calm - N/A   Clear
4:15 AM 30.0 °F 26.5 °F 26.8 °F 88% 30.24 in 10.0 mi SW 3.5 mph - N/A   Clear
4:34 AM 30.6 °F 25.8 °F 27.5 °F 88% 30.24 in 10.0 mi SW 4.6 mph - N/A   Clear
4:54 AM 30.9 °F 27.5 °F 27.3 °F 86% 30.25 in 10.0 mi SW 3.5 mph - N/A   Clear
5:15 AM 31.3 °F 26.6 °F 27.3 °F 85% 30.25 in 10.0 mi SW 4.6 mph - N/A   Clear
5:34 AM 30.7 °F 26.0 °F 27.0 °F 86% 30.26 in 10.0 mi SW 4.6 mph - N/A   Clear
5:54 AM 30.4 °F - 27.1 °F 88% 30.26 in 10.0 mi Calm Calm - N/A   Clear
6:15 AM 30.2 °F - 26.4 °F 86% 30.26 in 10.0 mi Calm Calm - N/A   Clear
6:34 AM 30.4 °F 26.9 °F 26.6 °F 86% 30.26 in 10.0 mi SW 3.5 mph - N/A   Clear
7:15 AM 31.5 °F 28.1 °F 27.1 °F 84% 30.27 in 10.0 mi SW 3.5 mph - N/A   Clear
7:34 AM 30.7 °F - 26.8 °F 85% 30.27 in 10.0 mi Calm Calm - N/A   Clear
7:54 AM 30.2 °F - 27.0 °F 88% 30.27 in 10.0 mi Calm Calm - N/A   Clear
8:15 AM 30.9 °F - 27.0 °F 85% 30.28 in 10.0 mi Calm Calm - N/A   Clear
8:34 AM 32.4 °F 27.9 °F 29.1 °F 88% 30.28 in 10.0 mi SW 4.6 mph - N/A   Clear
8:54 AM 35.1 °F 31.0 °F 29.8 °F 81% 30.28 in 10.0 mi SW 4.6 mph - N/A   Clear
9:14 AM 37.6 °F 32.3 °F 30.7 °F 76% 30.28 in 10.0 mi SW 6.9 mph - N/A   Clear
9:34 AM 40.5 °F 35.1 °F 31.1 °F 69% 30.29 in 10.0 mi SW 8.1 mph - N/A   Clear
9:55 AM 42.6 °F 37.2 °F 30.7 °F 63% 30.29 in 10.0 mi SW 9.2 mph - N/A   Clear
10:14 AM 45.1 °F 41.4 °F 32.0 °F 60% 30.29 in 10.0 mi SW 6.9 mph - N/A   Clear
10:34 AM 47.7 °F - 31.3 °F 53% 30.29 in 10.0 mi WSW 8.1 mph - N/A   Clear
10:55 AM 50.0 °F - 28.6 °F 44% 30.28 in 10.0 mi WSW 10.4 mph 17.3 mph N/A   Clear
11:14 AM 51.3 °F - 28.2 °F 41% 30.27 in 10.0 mi West 10.4 mph 17.3 mph N/A   Clear
11:34 AM 51.8 °F - 27.5 °F 39% 30.27 in 10.0 mi WSW 12.7 mph 18.4 mph N/A   Clear
11:55 AM 52.7 °F - 27.3 °F 38% 30.26 in 10.0 mi SW 12.7 mph - N/A   Clear
12:14 PM 53.8 °F - 28.2 °F 37% 30.25 in 10.0 mi West 13.8 mph 17.3 mph N/A   Clear
12:34 PM 54.1 °F - 27.9 °F 36% 30.24 in 10.0 mi SW 9.2 mph 17.3 mph N/A   Clear
12:55 PM 54.9 °F - 27.3 °F 35% 30.24 in 10.0 mi WSW 11.5 mph - N/A   Clear
1:14 PM 55.4 °F - 27.1 °F 34% 30.23 in 10.0 mi WSW 9.2 mph - N/A   Clear
1:54 PM 56.7 °F - 24.4 °F 29% 30.20 in 10.0 mi WSW 9.2 mph 18.4 mph N/A   Clear
2:14 PM 57.6 °F - 25.5 °F 29% 30.19 in 10.0 mi SW 12.7 mph 19.6 mph N/A   Clear
2:35 PM 57.9 °F - 24.6 °F 28% 30.18 in 10.0 mi SW 13.8 mph - N/A   Clear
2:54 PM 58.3 °F - 24.4 °F 27% 30.17 in 10.0 mi WSW 13.8 mph 17.3 mph N/A   Clear
3:14 PM 58.6 °F - 25.3 °F 28% 30.17 in 10.0 mi SW 8.1 mph 18.4 mph N/A   Clear
3:34 PM 58.6 °F - 25.9 °F 29% 30.17 in 10.0 mi WSW 8.1 mph 18.4 mph N/A   Clear
3:54 PM 58.8 °F - 27.3 °F 30% 30.16 in 10.0 mi West 10.4 mph - N/A   Clear
4:14 PM 58.3 °F - 26.4 °F 30% 30.17 in 10.0 mi WSW 11.5 mph 16.1 mph N/A   Clear
4:35 PM 59.2 °F - 25.9 °F 28% 30.16 in 10.0 mi WSW 12.7 mph - N/A   Clear
4:54 PM 57.7 °F - 26.8 °F 31% 30.16 in 10.0 mi West 11.5 mph 20.7 mph N/A   Clear
5:14 PM 57.9 °F - 27.7 °F 32% 30.17 in 10.0 mi WNW 9.2 mph - N/A   Clear
5:35 PM 57.4 °F - 27.1 °F 31% 30.16 in 10.0 mi West 11.5 mph - N/A   Clear
6:14 PM 55.6 °F - 27.0 °F 33% 30.15 in 10.0 mi SW 10.4 mph - N/A   Clear
6:54 PM 52.0 °F - 29.5 °F 42% 30.16 in 10.0 mi West 5.8 mph - N/A   Clear
7:35 PM 47.5 °F - 30.2 °F 51% 30.17 in 10.0 mi WSW 4.6 mph - N/A   Clear
7:54 PM 46.2 °F 43.3 °F 31.1 °F 56% 30.16 in 10.0 mi SSW 5.8 mph - N/A   Clear
8:14 PM 44.8 °F 41.6 °F 30.9 °F 58% 30.16 in 10.0 mi SSW 5.8 mph - N/A   Clear
8:35 PM 45.3 °F 43.0 °F 30.9 °F 57% 30.16 in 10.0 mi SSW 4.6 mph - N/A   Clear
9:14 PM 43.9 °F 40.5 °F 32.0 °F 63% 30.17 in 10.0 mi SW 5.8 mph - N/A   Clear
9:35 PM 46.2 °F 43.3 °F 31.5 °F 56% 30.17 in 10.0 mi SW 5.8 mph - N/A   Clear
9:54 PM 45.1 °F 43.7 °F 31.1 °F 58% 30.18 in 10.0 mi WSW 3.5 mph - N/A   Clear
10:14 PM 44.4 °F - 31.3 °F 60% 30.18 in 10.0 mi Calm Calm - N/A   Clear
10:54 PM 44.6 °F 41.4 °F 31.5 °F 60% 30.17 in 10.0 mi SW 5.8 mph - N/A   Clear
11:54 PM 45.5 °F 44.2 °F 31.1 °F 57% 30.18 in 10.0 mi WNW 3.5 mph - N/A   Clear